Find ACTS

NORAD ID: 22796 Int'l Des: 1993-058 Owner: LERC Country: US operational
HEOCIRCULARGSO

現在のビュー

3D地球を読み込み中...

ACTSについて

説明を読み込み中...

次回通過

Passes for default location (London). Set your location on the main map for personalized predictions.

高度履歴

Loading altitude history...

軌道要素

1 22796U 93058B 26151.21494519 -.00000106 00000-0 00000+0 0 9998
2 22796 14.5745 355.7080 0054248 80.6122 143.7578 1.00272351126739
Epoch: May 31, 2026 • Age: 7 hours

現在のステータス

高度 35852.8 km
速度 3.07 km/s
衛星直下点 -6.42°S, 105.88°W
打ち上げ日 Sep 12, 1993
運用期間 32.7 years
タイプ other

技術仕様

分類 Payload
質量 1688.00 kg
乾燥質量 1488.00 kg
総質量 2770.00 kg
長さ 9.00 m
直径 4.30 m
スパン 14.40 m
形状 Box + 2 Pan
製造者 MMAS
バスタイプ AS4000
フェーズステータス In Orbit
所有者/国 LERC/US

Most Searched